When you browse on this site, cookies collect data to enhance your experience and personalize the content and advertising you see.
Visit our Privacy Policy to learn more. By continuing to use the site, you agree to this use of cookies and data.
  • In Sweden
  • List of Countries
  • For 7 days
  • Water Temperature
  • Satellite Maps
  • Weather Map
  • Weather Widgets
  • user-avatar
    Login

    Hourly Weather Imantau

    Today, 22 April, Monday

    Time Temperature Precipitation Wind Pressure Humidity
    00:00 +3°C° 0 mm 0 mps 736 mmHg 62%
    01:00 +3°C° 0 mm 1 mps 736 mmHg 64%
    02:00 +3°C° 0 mm 1 mps 736 mmHg 65%
    03:00 +3°C° 0 mm 1 mps 736 mmHg 66%
    04:00 +3°C° 0 mm 1 mps 736 mmHg 67%
    05:00 +3°C° 0 mm 1 mps 736 mmHg 66%
    06:00 +4°C° 0 mm 1 mps 736 mmHg 62%
    07:00 +4°C° 0 mm 2 mps 736 mmHg 59%
    08:00 +5°C° 0 mm 2 mps 737 mmHg 56%
    09:00 +6°C° 0.1 mm 2 mps 736 mmHg 53%
    10:00 +7°C° 0.1 mm 2 mps 736 mmHg 50%
    11:00 +7°C° 0.1 mm 2 mps 736 mmHg 47%
    12:00 +8°C° 0.1 mm 2 mps 736 mmHg 45%
    13:00 +8°C° 0.1 mm 2 mps 736 mmHg 44%
    14:00 +9°C° 0.1 mm 2 mps 736 mmHg 42%
    15:00 +9°C° 0.1 mm 2 mps 736 mmHg 41%
    16:00 +9°C° 0.1 mm 2 mps 736 mmHg 41%
    17:00 +9°C° 0.1 mm 2 mps 735 mmHg 41%
    18:00 +8°C° 0.1 mm 2 mps 735 mmHg 45%
    19:00 +7°C° 0.1 mm 2 mps 735 mmHg 50%
    20:00 +8°C° 0.1 mm 1 mps 735 mmHg 54%
    21:00 +7°C° 0 mm 1 mps 735 mmHg 57%
    22:00 +7°C° 0 mm 1 mps 735 mmHg 60%
    23:00 +6°C° 0 mm 1 mps 734 mmHg 63%

    Tomorrow, 23 April, Tuesday

    Time Temperature Precipitation Wind Pressure Humidity
    00:00 +6°C° 0 mm 1 mps 734 mmHg 65%
    01:00 +5°C° 0 mm 1 mps 734 mmHg 67%
    02:00 +4°C° 0 mm 2 mps 734 mmHg 69%
    03:00 +4°C° 0 mm 2 mps 734 mmHg 71%
    04:00 +3°C° 0 mm 2 mps 733 mmHg 72%
    05:00 +3°C° 0 mm 2 mps 733 mmHg 73%
    06:00 +4°C° 0 mm 2 mps 733 mmHg 67%
    07:00 +4°C° 0 mm 3 mps 733 mmHg 60%
    08:00 +5°C° 0 mm 4 mps 733 mmHg 54%
    09:00 +7°C° 0 mm 4 mps 733 mmHg 53%
    10:00 +8°C° 0 mm 5 mps 733 mmHg 52%
    11:00 +9°C° 0 mm 6 mps 732 mmHg 51%
    12:00 +9°C° 0.2 mm 6 mps 732 mmHg 51%
    13:00 +9°C° 0.2 mm 6 mps 732 mmHg 52%
    14:00 +9°C° 0.2 mm 5 mps 731 mmHg 52%
    15:00 +10°C° 0.1 mm 6 mps 731 mmHg 50%
    16:00 +10°C° 0.1 mm 6 mps 731 mmHg 49%
    17:00 +11°C° 0.1 mm 6 mps 730 mmHg 47%
    18:00 +10°C° 0 mm 5 mps 730 mmHg 52%
    19:00 +10°C° 0 mm 4 mps 730 mmHg 57%
    20:00 +9°C° 0 mm 3 mps 730 mmHg 62%
    21:00 +8°C° 0 mm 3 mps 730 mmHg 62%
    22:00 +8°C° 0 mm 3 mps 730 mmHg 62%
    23:00 +7°C° 0 mm 3 mps 730 mmHg 63%

    Day after tomorrow, 24 April, Wednesday

    Time Temperature Precipitation Wind Pressure Humidity
    00:00 +7°C° 0 mm 3 mps 730 mmHg 63%
    01:00 +7°C° 0 mm 3 mps 730 mmHg 64%
    02:00 +7°C° 0 mm 3 mps 730 mmHg 64%
    03:00 +7°C° 0 mm 3 mps 730 mmHg 66%
    04:00 +5°C° 0 mm 3 mps 730 mmHg 68%
    05:00 +5°C° 0 mm 3 mps 730 mmHg 70%
    06:00 +7°C° 0 mm 3 mps 730 mmHg 66%
    07:00 +8°C° 0 mm 3 mps 730 mmHg 62%
    08:00 +8°C° 0 mm 4 mps 730 mmHg 58%
    09:00 +10°C° 0.3 mm 4 mps 730 mmHg 56%
    10:00 +10°C° 0.3 mm 5 mps 730 mmHg 55%
    11:00 +11°C° 0.3 mm 6 mps 729 mmHg 53%
    12:00 +13°C° 0.5 mm 6 mps 729 mmHg 50%
    13:00 +13°C° 0.5 mm 5 mps 729 mmHg 48%
    14:00 +14°C° 0.5 mm 5 mps 728 mmHg 45%
    15:00 +14°C° 0.4 mm 5 mps 728 mmHg 45%
    16:00 +13°C° 0.4 mm 4 mps 728 mmHg 45%
    17:00 +13°C° 0.4 mm 3 mps 728 mmHg 45%
    18:00 +12°C° 0.2 mm 3 mps 728 mmHg 50%
    19:00 +11°C° 0.2 mm 3 mps 728 mmHg 54%
    20:00 +10°C° 0.2 mm 2 mps 727 mmHg 58%
    21:00 +9°C° 0 mm 2 mps 727 mmHg 63%
    22:00 +8°C° 0 mm 3 mps 727 mmHg 67%
    23:00 +8°C° 0 mm 3 mps 727 mmHg 72%

    25 April, Thursday

    Time Temperature Precipitation Wind Pressure Humidity
    00:00 +7°C° 0 mm 3 mps 727 mmHg 75%
    01:00 +7°C° 0 mm 3 mps 727 mmHg 79%
    02:00 +5°C° 0 mm 4 mps 726 mmHg 82%
    03:00 +5°C° 0.1 mm 4 mps 726 mmHg 84%
    04:00 +4°C° 0.1 mm 4 mps 726 mmHg 86%
    05:00 +4°C° 0.1 mm 4 mps 727 mmHg 89%
    06:00 +5°C° 0.1 mm 4 mps 727 mmHg 81%
    07:00 +5°C° 0.1 mm 5 mps 727 mmHg 73%
    08:00 +6°C° 0.1 mm 5 mps 727 mmHg 65%
    09:00 +7°C° 0.1 mm 5 mps 727 mmHg 59%
    10:00 +8°C° 0.1 mm 6 mps 727 mmHg 53%
    11:00 +9°C° 0.1 mm 6 mps 728 mmHg 47%
    12:00 +9°C° 0 mm 6 mps 727 mmHg 45%
    13:00 +10°C° 0 mm 5 mps 727 mmHg 43%
    14:00 +12°C° 0 mm 5 mps 727 mmHg 41%
    15:00 +10°C° 0.1 mm 5 mps 727 mmHg 41%
    16:00 +10°C° 0.1 mm 6 mps 726 mmHg 42%
    17:00 +10°C° 0.1 mm 6 mps 726 mmHg 43%
    18:00 +9°C° 0.2 mm 5 mps 726 mmHg 51%
    19:00 +8°C° 0.2 mm 5 mps 727 mmHg 59%
    20:00 +7°C° 0.2 mm 4 mps 727 mmHg 67%
    21:00 +6°C° 0.1 mm 5 mps 727 mmHg 72%
    22:00 +5°C° 0.1 mm 5 mps 727 mmHg 77%
    23:00 +3°C° 0.1 mm 6 mps 727 mmHg 82%

    26 April, Friday

    Time Temperature Precipitation Wind Pressure Humidity
    00:00 +3°C° 0.1 mm 6 mps 727 mmHg 80%
    01:00 +2°C° 0.1 mm 6 mps 727 mmHg 79%
    02:00 +1°C° 0.1 mm 6 mps 727 mmHg 77%
    03:00 +1°C° 0 mm 6 mps 728 mmHg 76%
    04:00 0°C° 0 mm 5 mps 728 mmHg 74%
    05:00 -1°C° 0 mm 4 mps 729 mmHg 72%
    06:00 0°C° 0 mm 4 mps 729 mmHg 65%
    07:00 0°C° 0 mm 4 mps 730 mmHg 58%
    08:00 0°C° 0 mm 4 mps 730 mmHg 50%
    09:00 +1°C° 0 mm 4 mps 730 mmHg 45%
    10:00 +3°C° 0 mm 4 mps 730 mmHg 39%
    11:00 +4°C° 0 mm 3 mps 730 mmHg 33%
    12:00 +5°C° 0 mm 3 mps 730 mmHg 31%
    13:00 +7°C° 0 mm 3 mps 730 mmHg 28%
    14:00 +8°C° 0 mm 3 mps 729 mmHg 26%
    15:00 +8°C° 0 mm 3 mps 729 mmHg 31%
    16:00 +7°C° 0 mm 3 mps 729 mmHg 35%
    17:00 +6°C° 0 mm 4 mps 729 mmHg 40%
    18:00 +5°C° 0.5 mm 4 mps 729 mmHg 50%
    19:00 +4°C° 0.5 mm 4 mps 729 mmHg 60%
    20:00 +4°C° 0.5 mm 4 mps 730 mmHg 69%
    21:00 +1°C° 1.2 mm 5 mps 730 mmHg 71%
    22:00 -2°C° 1.2 mm 6 mps 730 mmHg 73%
    23:00 -3°C° 1.2 mm 6 mps 730 mmHg 74%

    27 April, Saturday

    Time Temperature Precipitation Wind Pressure Humidity
    00:00 -4°C° 0 mm 6 mps 731 mmHg 77%
    01:00 -5°C° 0 mm 5 mps 731 mmHg 80%
    02:00 -6°C° 0 mm 5 mps 731 mmHg 82%
    03:00 -5°C° 0 mm 4 mps 731 mmHg 83%
    04:00 -5°C° 0 mm 4 mps 732 mmHg 84%
    05:00 -5°C° 0 mm 4 mps 732 mmHg 85%
    06:00 -4°C° 0 mm 4 mps 733 mmHg 84%
    07:00 -4°C° 0 mm 5 mps 733 mmHg 83%
    08:00 -2°C° 0 mm 5 mps 734 mmHg 82%
    09:00 -1°C° 0 mm 5 mps 734 mmHg 78%
    10:00 0°C° 0 mm 4 mps 734 mmHg 74%
    11:00 +1°C° 0 mm 4 mps 735 mmHg 71%
    12:00 +2°C° 0 mm 5 mps 734 mmHg 63%
    13:00 +3°C° 0 mm 5 mps 734 mmHg 55%
    14:00 +5°C° 0 mm 6 mps 734 mmHg 48%
    15:00 +5°C° 0 mm 6 mps 734 mmHg 42%
    16:00 +6°C° 0 mm 7 mps 733 mmHg 36%
    17:00 +6°C° 0 mm 8 mps 733 mmHg 30%
    18:00 +5°C° 0 mm 7 mps 732 mmHg 35%
    19:00 +5°C° 0 mm 6 mps 732 mmHg 39%
    20:00 +4°C° 0 mm 6 mps 732 mmHg 44%
    21:00 +5°C° 0 mm 7 mps 731 mmHg 46%
    22:00 +6°C° 0 mm 8 mps 731 mmHg 49%
    23:00 +6°C° 0 mm 9 mps 730 mmHg 52%
    Show more